Regional Weather Roundup
Issued by NWS

Home | Current Version | Previous Version | Graphics & Text | Print | Product List | Glossary On
Versions: 1 2 3 4 5 6 7 8 9 10 11 12 13 14 15 16 17 18 19 20 21 22 23 24 25 26 27 28 29 30 31 32 33 34 35 36 37 38 39 40 41 42 43 44 45 46 47 48 49 50
898
ASUS45 KBOU 231307
RWRCO

WEATHER ROUNDUP FOR COLORADO
NATIONAL WEATHER SERVICE DENVER/BOULDER CO
700 AM MDT WED AUG 23 2017

NOTE: "FAIR" INDICATES FEW OR NO CLOUDS BELOW 12000 FEET WITH NO
SIGNIFICANT WEATHER AND/OR OBSTRUCTIONS TO VISIBILITY.

COZ001>005-013-030-031-231400-
...NORTHWEST COLORADO...

CITY           SKY/WX    TMP DP  RH WIND       PRES   REMARKS
CRAIG          FAIR      53  43  68 CALM      30.31S
HAYDEN         FAIR      57  40  52 E8        30.35R
MEEKER         FAIR      56  45  66 CALM      30.33R
RABBIT EARS PA FAIR      50  36  57 W8        30.59S
STEAMBOAT SPGS FAIR      51  43  76 CALM      30.36R
WALDEN         FAIR      45  37  76 SE5       30.44S
$$

COZ006>008-011-231400-
...WEST CENTRAL VALLEYS...

CITY           SKY/WX    TMP DP  RH WIND       PRES   REMARKS
GRAND JUNCTION FAIR      66  49  54 E12       30.23R
MONTROSE       MOCLDY    55  47  74 CALM      30.32R
EAGLE          FAIR      54  41  61 CALM      30.39R
RIFLE          CLOUDY    60  47  61 CALM      30.30R
DELTA          FAIR      58  44  61 CALM      30.28S
NUCLA          FAIR      55  45  67 SE7       30.34S
$$

COZ017>023-064>068-231400-
...SOUTHWEST COLORADO...

CITY           SKY/WX    TMP DP  RH WIND       PRES   REMARKS
DURANGO        FAIR      52  43  71 CALM      30.37S
CORTEZ         FAIR      50  47  89 SE6       30.31R
PAGOSA SPRINGS FAIR      45  44  97 CALM      30.46R
TELLURIDE      FAIR      50  43  76 SE7       30.53S
WOLF CREEK PAS FAIR      41  39  93 SW8       30.74R
$$

COZ009-010-012-014-032>034-037-058>063-231400-
...CENTRAL COLORADO...

CITY           SKY/WX    TMP DP  RH WIND       PRES   REMARKS
ASPEN          FAIR      52  43  71 S5        30.42R
BUENA VISTA    CLOUDY    47  42  84 W3        30.44S
COPPER MTN     CLOUDY    52  34  50 W6        30.69S
BERTHOUD PASS  CLOUDY    41  36  81 NW6       30.72S
COTTONWOOD PAS MOCLDY    55  36  47 W6        30.54S
GUNNISON       FAIR      42  38  85 CALM      30.49R
KREMMLING      FAIR      54  45  71 CALM      30.43R
LEADVILLE      CLOUDY    40  36  86 CALM      30.55R
MONARCH PASS   FAIR      41  34  75 W25       30.77S
SALIDA         FAIR      52  43  71 N9        30.49R
SUNLIGHT       CLOUDY    46  34  61 S5        30.64S
WILKERSON PASS CLOUDY    50  32  50 NW3       30.65S
$$

COZ069>075-231400-
...SAN LUIS VALLEY/SANGRE DE CRISTO MOUNTAINS...

CITY           SKY/WX    TMP DP  RH WIND       PRES   REMARKS
ALAMOSA        FOG       42  42 100 CALM      30.44S VSB 1/4
DEL NORTE      FAIR      47  43  84 W15       30.47S
LA VETA PASS   NOT AVBL
SAGUACHE         N/A    N/A N/A N/A MISG        N/A
$$

COZ035-036-038>040-231400-
...NORTHERN COLORADO FRONT RANGE...

CITY           SKY/WX    TMP DP  RH WIND       PRES   REMARKS
DENVER INTL AP MOCLDY    66  48  52 W9        30.19R
DMNS CITY PARK   N/A     64  47  53 S5        30.19S
AURORA         MOCLDY    64  49  58 SW5       30.21R
FRONT RANGE AP FAIR      64  50  59 SW6       30.20R
ERIE MUNI ARPT FAIR      61  55  79 CALM      30.23S
BOULDER MUN AP FAIR      63  46  55 CALM      30.20R
CENTENNIAL     MOCLDY    63  48  58 CALM      30.22R
BROOMFIELD     MOCLDY    66  55  68 N6        30.22R
FORT COLLINS   FAIR      58  54  86 CALM      30.19R
LONGMONT       FAIR      61  53  75 CALM      30.20S HAZE
$$

COZ041-046-047-076>085-087-088-231400-
...PIKES PEAK/PALMER DIVIDE AND SOUTHERN FOOTHILLS...

CITY           SKY/WX    TMP DP  RH WIND       PRES   REMARKS
COLO. SPRINGS  MOCLDY    60  53  77 E5        30.29R
A. F. ACADEMY  CLOUDY    55  50  85 N5        30.29S
SCHRIEVER AFB  CLOUDY    55  53  92 NE5       30.29R
CHEYENNE MTN   FAIR      57  47  68 CALM      30.26S
ELLICOTT       FAIR     N/A N/A N/A SE7       30.27S
FALCON         FAIR      56  51  85 E3        30.33S
FORT CARSON    MOCLDY    53  49  87 CALM      30.26R
LIMON          CLOUDY    56  56 100 SE12      30.25R
MONUMENT HILL  FAIR      55  48  76 S8        30.32S
CANON CITY     CLEAR     63  48  59 W16       30.23S
WALSENBURG     FAIR      61  48  63 W3        30.29S
TRINIDAD       FAIR      54  48  80 SW9       30.28S
$$

COZ042>045-048>051-090-091-231400-
...NORTHEAST COLORADO...

CITY           SKY/WX    TMP DP  RH WIND       PRES   REMARKS
GREELEY ARPT   FAIR      55  53  93 W3        30.18R
AKRON          FAIR      57  54  89 S9        30.17R
BURLINGTON     MOCLDY    60  53  77 S17       30.21S
WRAY           FAIR      59  50  72 S9        30.18S
YUMA           FAIR      57  54  88 S12G18    30.17S
STERLING       FAIR      59  55  88 S5        30.14R
HOLYOKE        FAIR      59  52  77 S13       30.17S
FORT MORGAN    FAIR      56  54  90 CALM      30.16R
$$

COZ086-089-092>099-231400-
...SOUTHEAST COLORADO...

CITY           SKY/WX    TMP DP  RH WIND       PRES   REMARKS
PUEBLO         FAIR      54  49  83 CALM      30.22R
LA JUNTA       FAIR      59  56  89 MISG      30.20R
LAMAR          MOCLDY    64  60  87 SE7       30.19R
SPRINGFIELD      N/A     62  62 100 S13       30.25S
$$




USA.gov is the U.S. government's official web portal to all federal, state and local government web resources and services.